Time,TemperatureF,DewpointF,PressureIn,WindDirection,WindDirectionDegrees,WindSpeedMPH,WindSpeedGustMPH,Humidity,HourlyPrecipIn,Conditions,Clouds,dailyrainin,SoftwareType,DateUTC
2013-06-20 00:01:00,63.0,46.0,-100.00,NE,46,-999.0,0.0,53,-99.99,,,-99.99,,2013-06-20 07:01:00,
2013-06-20 00:12:00,63.0,46.0,-100.00,NE,46,-999.0,-999.0,53,-99.99,,,-99.99,,2013-06-20 07:12:00,
2013-06-20 00:22:00,64.0,43.0,-100.00,NE,46,-999.0,0.0,46,-99.99,,,-99.99,,2013-06-20 07:22:00,
2013-06-20 00:34:00,64.0,43.0,-100.00,NE,46,-999.0,0.0,46,-99.99,,,-99.99,,2013-06-20 07:34:00,
2013-06-20 00:43:00,64.0,43.0,-100.00,NE,46,-999.0,0.0,46,-99.99,,,-99.99,,2013-06-20 07:43:00,
2013-06-20 00:52:00,63.0,42.0,-100.00,North,-999,-999.0,0.0,46,-99.99,,,-99.99,,2013-06-20 07:52:00,
2013-06-20 01:02:00,63.0,42.0,-100.00,North,-999,-999.0,0.0,46,-99.99,,,-99.99,,2013-06-20 08:02:00,
2013-06-20 01:11:00,63.0,42.0,-100.00,NNE,31,-999.0,-999.0,46,-99.99,,,-99.99,,2013-06-20 08:11:00,
2013-06-20 01:22:00,61.0,44.0,-100.00,NNE,31,-999.0,4.0,54,-99.99,,,-99.99,,2013-06-20 08:22:00,
2013-06-20 01:34:00,61.0,44.0,-100.00,NNE,31,-999.0,4.0,54,-99.99,,,-99.99,,2013-06-20 08:34:00,
2013-06-20 01:43:00,61.0,44.0,-100.00,NNE,31,-999.0,3.0,54,-99.99,,,-99.99,,2013-06-20 08:43:00,
2013-06-20 02:01:00,61.0,41.0,-100.00,NNE,31,-999.0,3.0,48,-99.99,,,-99.99,,2013-06-20 09:01:00,
2013-06-20 02:11:00,61.0,41.0,-100.00,NNE,31,-999.0,-999.0,48,-99.99,,,-99.99,,2013-06-20 09:11:00,
2013-06-20 04:22:00,61.0,36.0,-100.00,North,11,-999.0,180.0,39,-99.99,,,-99.99,,2013-06-20 11:22:00,
2013-06-20 05:11:00,62.0,37.0,-100.00,NNE,17,-999.0,-999.0,40,-99.99,,,-99.99,,2013-06-20 12:11:00,
2013-06-20 05:22:00,64.0,37.0,-100.00,North,-999,-999.0,2.0,37,-99.99,,,-99.99,,2013-06-20 12:22:00,
2013-06-20 05:43:00,64.0,37.0,-100.00,North,-999,-999.0,5.0,37,-99.99,,,-99.99,,2013-06-20 12:43:00,
2013-06-20 05:53:00,64.0,37.0,-100.00,North,5,-999.0,5.0,36,-99.99,,,-99.99,,2013-06-20 12:53:00,
2013-06-20 06:22:00,64.0,37.0,-100.00,North,5,-999.0,6.0,36,-99.99,,,-99.99,,2013-06-20 13:22:00,
2013-06-20 06:33:00,64.0,37.0,-100.00,North,6,-999.0,6.0,36,-99.99,,,-99.99,,2013-06-20 13:33:00,
2013-06-20 06:42:00,64.0,37.0,-100.00,North,6,-999.0,8.0,36,-99.99,,,-99.99,,2013-06-20 13:42:00,
2013-06-20 06:53:00,65.0,38.0,-100.00,North,9,-999.0,8.0,37,-99.99,,,-99.99,,2013-06-20 13:53:00,
2013-06-20 07:22:00,63.0,37.0,-100.00,NE,35,-999.0,6.0,38,-99.99,,,-99.99,,2013-06-20 14:22:00,
2013-06-20 07:32:00,63.0,37.0,-100.00,NE,35,-999.0,6.0,38,-99.99,,,-99.99,,2013-06-20 14:32:00,
2013-06-20 07:42:00,63.0,37.0,-100.00,NE,35,-999.0,-999.0,38,-99.99,,,-99.99,,2013-06-20 14:42:00,
2013-06-20 07:53:00,67.0,38.0,-100.00,NNE,18,-999.0,5.0,34,-99.99,,,-99.99,,2013-06-20 14:53:00,
2013-06-20 08:22:00,69.0,42.0,-100.00,NNE,28,-999.0,-999.0,37,-99.99,,,-99.99,,2013-06-20 15:22:00,
2013-06-20 08:33:00,69.0,42.0,-100.00,NNE,28,-999.0,-999.0,37,-99.99,,,-99.99,,2013-06-20 15:33:00,
2013-06-20 09:01:00,73.0,42.0,-100.00,ESE,122,-999.0,5.0,33,-99.99,,,-99.99,,2013-06-20 16:01:00,
2013-06-20 09:11:00,73.0,42.0,-100.00,ESE,122,-999.0,5.0,33,-99.99,,,-99.99,,2013-06-20 16:11:00,
2013-06-20 10:21:00,74.0,49.0,-100.00,North,-999,-999.0,8.0,42,-99.99,,,-99.99,,2013-06-20 17:21:00,
2013-06-20 10:32:00,74.0,49.0,-100.00,North,-999,-999.0,8.0,42,-99.99,,,-99.99,,2013-06-20 17:32:00,
2013-06-20 10:43:00,74.0,49.0,-100.00,North,-999,-999.0,8.0,42,-99.99,,,-99.99,,2013-06-20 17:43:00,
2013-06-20 10:52:00,74.0,52.0,-100.00,SE,132,-999.0,8.0,47,-99.99,,,-99.99,,2013-06-20 17:52:00,
2013-06-20 11:01:00,74.0,52.0,-100.00,SE,132,-999.0,8.0,47,-99.99,,,-99.99,,2013-06-20 18:01:00,
2013-06-20 11:11:00,74.0,52.0,-100.00,SE,132,-999.0,8.0,47,-99.99,,,-99.99,,2013-06-20 18:11:00,
2013-06-20 11:22:00,74.0,55.0,-100.00,ESE,120,-999.0,8.0,52,-99.99,,,-99.99,,2013-06-20 18:22:00,
2013-06-20 11:33:00,74.0,55.0,-100.00,ESE,120,-999.0,8.0,52,-99.99,,,-99.99,,2013-06-20 18:33:00,
2013-06-20 11:43:00,74.0,55.0,-100.00,ESE,120,-999.0,8.0,52,-99.99,,,-99.99,,2013-06-20 18:43:00,
2013-06-20 11:53:00,74.0,57.0,-100.00,SE,144,-999.0,8.0,55,-99.99,,,-99.99,,2013-06-20 18:53:00,
2013-06-20 12:01:00,74.0,57.0,-100.00,SE,144,-999.0,8.0,55,-99.99,,,-99.99,,2013-06-20 19:01:00,
2013-06-20 12:11:00,74.0,57.0,-100.00,SE,144,-999.0,8.0,55,-99.99,,,-99.99,,2013-06-20 19:11:00,
2013-06-20 12:22:00,77.0,57.0,-100.00,SSE,147,-999.0,8.0,50,-99.99,,,-99.99,,2013-06-20 19:22:00,
2013-06-20 12:34:00,77.0,57.0,-100.00,SSE,147,-999.0,8.0,50,-99.99,,,-99.99,,2013-06-20 19:34:00,
2013-06-20 12:43:00,77.0,57.0,-100.00,SSE,147,-999.0,9.0,50,-99.99,,,-99.99,,2013-06-20 19:43:00,
2013-06-20 12:52:00,77.0,56.0,-100.00,South,175,-999.0,9.0,49,-99.99,,,-99.99,,2013-06-20 19:52:00,
2013-06-20 13:02:00,77.0,56.0,-100.00,South,175,-999.0,9.0,49,-99.99,,,-99.99,,2013-06-20 20:02:00,
2013-06-20 13:11:00,77.0,56.0,-100.00,South,175,-999.0,9.0,49,-99.99,,,-99.99,,2013-06-20 20:11:00,
2013-06-20 13:22:00,76.0,58.0,-100.00,SSE,161,-999.0,10.0,54,-99.99,,,-99.99,,2013-06-20 20:22:00,
2013-06-20 13:33:00,76.0,58.0,-100.00,SSE,161,-999.0,10.0,54,-99.99,,,-99.99,,2013-06-20 20:33:00,
2013-06-20 13:42:00,76.0,58.0,-100.00,SSE,161,-999.0,11.0,54,-99.99,,,-99.99,,2013-06-20 20:42:00,
2013-06-20 13:52:00,74.0,55.0,-100.00,SSW,213,-999.0,11.0,51,-99.99,,,-99.99,,2013-06-20 20:52:00,
2013-06-20 14:01:00,74.0,55.0,-100.00,SSW,213,-999.0,11.0,51,-99.99,,,-99.99,,2013-06-20 21:01:00,
2013-06-20 14:11:00,74.0,55.0,-100.00,SSW,213,-999.0,11.0,51,-99.99,,,-99.99,,2013-06-20 21:11:00,
2013-06-20 15:12:00,77.0,46.0,-100.00,WSW,257,-999.0,9.0,34,-99.99,,,-99.99,,2013-06-20 22:12:00,
2013-06-20 21:11:00,65.0,51.0,-100.00,North,359,-999.0,0.0,61,-99.99,,,-99.99,,2013-06-21 04:11:00,